Regional Weather Roundup
Issued by NWS

Home | Current Version | Previous Version | Text Only | Print | Product List | Glossary On
Versions: 1 2 3 4 5 6 7 8 9 10 11 12 13 14 15 16 17 18 19 20 21 22 23 24 25 26 27 28 29 30 31 32 33 34 35 36 37 38 39 40 41 42 43 44 45 46 47 48 49 50
000
ASUS44 KFWD 010815
RWRTX
NORTH TEXAS HOURLY WEATHER ROUNDUP
NATIONAL WEATHER SERVICE FORT WORTH TX
300 AM CDT SUN MAY 01 2016

NOTE: "FAIR" INDICATES FEW OR NO CLOUDS BELOW 12,000 FEET WITH NO
SIGNIFICANT WEATHER AND/OR OBSTRUCTIONS TO VISIBILITY.

TXZ118-119-010900-
DALLAS/FORT WORTH METROPLEX

CITY           SKY/WX    TMP DP  RH WIND       PRES   REMARKS
DFW AIRPORT    PTCLDY    62  56  80 NE7       29.88S
DALLAS LOVE    PTCLDY    62  58  86 N5        29.88S
FTW MEACHAM    PTCLDY    61  54  77 N8        29.88F
DAL-EXECUTIVE  CLEAR     61  57  87 N6        29.87F
FTW-ALLIANCE   PTCLDY    56  52  86 N6        29.90R
FTW-NAS-JRB    PTCLDY    64  53  67 N9        29.89F
FTW-SPINKS     PTCLDY    56  55  94 N5        29.89F
ARLINGTON      PTCLDY    63  57  81 N7        29.88F
GRAND PRAIRIE  PTCLDY    64  56  77 N7        29.89F
ADDISON        CLEAR     64  60  88 N3        29.90S
MESQUITE       CLEAR     61  61  99 CALM      29.89R
LANCASTER      CLEAR     60  57  90 CALM      29.89S
$$

TXZ091>094-102>105-117-120-121-131>134-010900-
NORTH CENTRAL TEXAS

CITY           SKY/WX    TMP DP  RH WIND       PRES   REMARKS
SHRMAN/DENISON CLEAR     55  46  71 N10       29.92F
GAINESVILLE    CLEAR     55  49  80 NE5       29.94S
BOWIE          CLEAR     55  48  78 N3        29.94R
BRIDGEPORT     PTCLDY    57  51  80 NE6       29.94R
DECATUR        CLEAR     58  48  70 N8        29.92R
DENTON         CLEAR     58  53  84 N10       29.90R
MCKINNEY       CLEAR     60  59  96 N7        29.89S
GREENVILLE     CLEAR     59  59 100 N3        29.89S
ROCKWALL       CLEAR     61  61  99 N5        29.87S
TERRELL        CLEAR     61  59  93 N3        29.88S
WAXAHACHIE     CLEAR     61  60  96 N5        29.89S
CLEBURNE       PTCLDY    61  59  94 N8        29.89F
GRANBURY       CLEAR     57  54  89 NW3       29.90S
$$

TXZ083>090-098>101-113>116-127>130-139>142-154-155-010900-
WESTERN NORTH TEXAS

CITY           SKY/WX    TMP DP  RH WIND       PRES   REMARKS
WICHITA FALLS  CLEAR     51  46  83 N9        29.97R
WF-KICKAPOO    CLEAR     58  47  66 N12       29.97R
VERNON         CLEAR     54  39  56 N12G17    30.02R
ABILENE        CLEAR     59  49  69 E3        29.95R
BRECKENRIDGE   CLEAR     59  49  69 NE10      29.92R
GRAHAM         CLEAR     55  49  80 N3        29.93S
MINERAL WELLS  CLEAR     56  51  84 N6        29.90R
STEPHENVILLE   CLEAR     58  53  84 CALM      29.92S
COMANCHE       CLEAR     60  55  86 CALM      29.89F
BROWNWOOD      PTCLDY    61  54  77 NE7       29.88S
$$

TXZ143>147-156>162-174-175-010900-
CENTRAL TEXAS

CITY           SKY/WX    TMP DP  RH WIND       PRES   REMARKS
WACO           CLEAR     62  59  90 NE6       29.86F
WACO-MCGREGOR  CLEAR     62  60  93 NE7       29.86F
HILLSBORO      CLEAR     60  57  91 NE7       29.87F
CORSICANA      CLEAR     64  61  90 N3        29.88S
MEXIA          CLEAR     64  63  98 CALM      29.86S
HEARNE         CLEAR     68  64  88 NE7       29.84F
CAMERON        CLEAR     65  63  91 NE3       29.84F
KILLEEN        NOT AVBL
KILLEEN-SKYLRK CLEAR     64  60  87 NE5       29.86S
GATESVILLE     CLEAR     63  57  82 MISG      29.88F
HAMILTON       CLEAR     60  56  85 E5        29.88F
LAMPASAS       CLEAR     60  58  92 NE3       29.86S
$$

TXZ095>097-106>112-122>126-135>138-148>153-164>167-010900-
EAST TEXAS

CITY           SKY/WX    TMP DP  RH WIND       PRES   REMARKS
PARIS          CLEAR     61  52  72 N8        29.90S
SULPHUR SPRNGS CLEAR     63  62  96 N7        29.90F
MOUNT PLEASANT PTCLDY    65  61  88 NW8       29.90S
MINEOLA        CLEAR     63  61  94 CALM      29.89S
TYLER          CLEAR     65  61  87 N6        29.87F
LONGVIEW       CLEAR     67  63  87 N8        29.86S
MARSHALL       MOCLDY    67  63  85 N7        29.88S
ATHENS         CLEAR     63  63 100 N3        29.86F
PALESTINE      CLEAR     65  63  93 N3        29.88R
JACKSONVILLE   CLEAR     66  64  93 N5        29.89S
HENDERSON      PTCLDY    67  64  89 CALM      29.87F
CENTER         FAIR      72  69  90 NW5       29.84S
NACOGDOCHES    MOCLDY    70  66  88 N8        29.85S
LUFKIN         CLEAR     69  66  90 N5        29.84S
$$

SUPPLEMENTAL OBSERVATIONS (CENTRAL)

CITY           SKY/WX    TMP DP  RH WIND       PRES   REMARKS
PAT MAYSE LAKE   N/A     59  57  94 NW5         N/A
GREENVILLE       N/A     61  57  88 N5          N/A
CEDAR HILL       N/A     59  57  94 NE2         N/A
LAKE LIMESTONE   N/A     66  63  88 NE6         N/A
MCGREGOR         N/A     61  57  88 NE5         N/A
TEMPLE           N/A     63  57  82 NE9         N/A
$$

SUPPLEMENTAL OBSERVATIONS (WEST)

CITY           SKY/WX    TMP DP  RH WIND       PRES   REMARKS
MILLERS CREEK    N/A     55  46  71 NE6         N/A
POSSUM KINGDOM   N/A     57  46  67 NE6         N/A
GRANBURY         N/A     55  52  88 NW3         N/A
COMANCHE         N/A     59  54  82 N3          N/A
HAMBY            N/A     55  48  76 SW3         N/A
IVIE RESERVOIR   N/A     61  52  72 NE7         N/A
COLORADO BEND    N/A     61  55  82 SE5G14      N/A
$$

SUPPLEMENTAL OBSERVATIONS (EAST)

CITY           SKY/WX    TMP DP  RH WIND       PRES   REMARKS
CLARKSVILLE      N/A     61  59  94 N3          N/A
TEXARKANA        N/A     66  63  88 NW5         N/A
LINDEN           N/A     66  63  88 NW5         N/A
CADDO LAKE       N/A     66  63  88 CALM        N/A
GILMER           N/A     64  61  88 N5          N/A
HENDERSON        N/A     66  63  88 N3          N/A
LUFKIN           N/A     70  66  88 MISG        N/A
N SABINE NF      N/A     72  68  88 MISG        N/A
S SABINE NF      N/A     72  70  94 W2          N/A
$$

SUPPLEMENTAL OBSERVATIONS ARE A COLLECTION OF AUTOMATED INSTRUMENTS
THAT ARE MAINTAINED BY A VARIETY OF FEDERAL AND STATE AGENCIES.
CERTAIN ELEMENTS...SUCH AS HUMIDITY VALUES AND SUSTAINED WIND
SPEEDS...MAY BE APPROXIMATED.





USA.gov is the U.S. government's official web portal to all federal, state and local government web resources and services.